Location: Buitenpost
(53.2543°N, 6.1529°E)
Time: 15:30:07
(UTC+00:00)

Daily predictions for brighter satellites

Satellite Brightness Start Highest point End
(mag) Time Altitude Azimuth Time Altitude Azimuth Time Altitude Azimuth
BREEZE-M DEB (TANK) 4.0 20:37:20 10° SW 20:41:13 43° SE 20:53:47 10° ENE
S3M 4.3 20:46:45 10° NNW 20:53:09 74° W 20:59:25 10° S
USA 281 4.0 20:49:04 10° ESE 20:55:15 45° NE 21:01:27 10° NNW
Ariane Rocket 3.1 20:50:17 10° SSE 20:55:23 80° WSW 21:00:32 10° NNW
Timation 1 Rocket 4.4 20:51:48 10° SSW 20:57:39 63° ESE 21:03:33 10° NE
Okean 1-7 4.4 20:54:14 10° SE 20:57:41 24° E 21:01:09 10° NE
SL-27 R/B 2.8 20:55:32 10° S 20:58:01 29° ESE 21:00:32 10° NE
Cosmos 2219 Rocket 2.4 20:55:07 10° NNW 21:00:48 67° NE 21:06:26 10° SE
Cosmos 1400 Rocket 2.8 20:57:56 10° SSW 21:01:49 86° W 21:05:41 10° NNE
COSMOS 2428 3.7 20:56:59 10° NNW 21:02:22 41° NE 21:07:46 10° ESE
BREEZE-M DEB (TANK) 3.3 21:02:35 10° WSW 21:04:18 21° SSW 21:06:33 10° SE
Cosmos 1356 Rocket 3.5 21:01:07 10° S 21:05:16 60° E 21:09:26 10° NNE
Cosmos 2266 Rocket 4.2 21:00:43 10° SSW 21:07:04 81° W 21:13:33 10° N
USA 245 4.5 21:03:44 10° S 21:07:16 43° W 21:11:44 10° NNW
ATLAS CENTAUR R/B 1.4 21:04:35 10° SSW 21:07:53 39° SE 21:11:18 10° NE
Kosmos-1783 4.1 21:06:13 10° NW 21:09:19 79° NE 21:15:39 10° SE
Cosmos 1850 Rocket 4.0 21:04:50 10° SSW 21:10:00 66° ESE 21:15:11 10° NNE
Okean 2 4.5 21:08:26 10° SSE 21:11:52 28° E 21:15:21 10° NNE
Cosmos 1655 Rocket 4.1 21:06:15 10° S 21:12:39 82° E 21:19:05 10° NNE
OPS 8737 4.0 21:10:35 10° NW 21:13:31 73° SW 21:16:29 10° SE
Meteor 1-4 Rocket 3.0 21:13:11 10° SSE 21:15:53 32° E 21:18:37 10° NNE
Cosmos 2228 Rocket 3.2 21:11:44 10° S 21:16:17 83° E 21:20:53 10° NNE
MOS 1 Rocket 4.1 21:11:48 10° S 21:17:06 58° W 21:22:18 10° NNW
Cosmos 1953 2.8 21:13:35 10° N 21:17:17 44° ENE 21:20:51 11° SSE
Cosmos 1315 Rocket 3.6 21:17:34 10° SSE 21:21:10 34° E 21:24:49 10° NNE
Spot 1 4.3 21:18:09 10° NNE 21:22:38 62° ESE 21:27:20 10° S
Cosmos 968 Rocket 3.6 21:18:25 10° S 21:23:28 61° ESE 21:28:36 10° NNE
SPOT 3 Rocket 4.2 21:19:24 10° S 21:24:25 53° W 21:29:30 10° NNW
SeaSat 1 3.8 21:20:18 10° S 21:24:38 31° WSW 21:29:01 10° NW
Cosmos 2360 Rocket 2.7 21:20:17 10° NW 21:25:48 53° WSW 21:31:16 10° S
Cosmos 1741 Rocket 4.1 21:25:13 10° SSW 21:30:30 87° ESE 21:35:52 10° NNE
Cosmos 1242 Rocket 3.7 21:29:30 12° SE 21:31:07 18° E 21:33:08 10° NE
Cosmos 1814 Rocket 4.2 21:26:50 10° NNW 21:32:07 69° WSW 21:37:16 11° SSE
BlueWalker 3 3.7 21:31:50 12° SSE 21:32:55 13° SE 21:34:48 10° ESE
MetOp-A 4.2 21:28:35 10° S 21:33:48 77° WSW 21:39:05 10° NNW
SL-16 R/B 3.9 21:32:49 10° NW 21:37:18 25° WSW 21:41:46 10° SSW
COSMOS 2455 4.4 21:35:30 11° SE 21:39:09 18° ESE 21:43:07 10° ENE
Landsat 5 3.4 21:35:16 10° NNE 21:39:16 83° ESE 21:43:24 10° SSW
USA 234 3.2 21:33:15 10° ENE 21:39:48 70° SSE 21:46:19 10° SW
ALOS 2 4.3 21:37:46 10° ESE 21:41:16 24° ENE 21:44:47 10° N
Cosmos 2333 Rocket 3.0 21:36:13 10° NW 21:41:40 45° WSW 21:47:06 10° S
SL-14 R/B 4.2 21:41:27 10° SSW 21:45:06 45° WNW 21:48:48 10° N
Cosmos 1346 Rocket 4.2 21:43:31 10° NNW 21:46:59 31° W 21:50:23 10° SSW
Cosmos 1703 Rocket 4.1 21:43:33 12° SSE 21:47:23 46° E 21:51:40 10° NNE
Cosmos 1862 Rocket 3.9 21:43:58 10° SSW 21:48:20 67° WNW 21:52:47 10° N
Okean 3 3.6 21:46:52 10° SSW 21:51:00 74° W 21:55:12 10° N
Cosmos 1455 1.9 21:48:39 10° NNW 21:52:11 87° W 21:55:03 15° S
SL-16 R/B 4.3 21:49:14 10° NNW 21:53:40 22° NNE 21:58:06 10° E
Cosmos 2208 Rocket 4.2 21:48:53 10° NNW 21:54:06 68° ENE 21:58:40 13° SE
Cosmos 1408 3.9 21:55:12 13° SE 21:56:42 18° E 21:58:52 10° NE
Cosmos 1833 4.2 21:52:35 10° SSW 21:58:14 86° ESE 22:03:53 10° NNE
EXPRESS MD2 2.5 21:56:09 10° WSW 21:58:20 35° S 21:59:45 16° ESE
CZ-4C R/B 3.5 21:58:28 13° SE 22:00:35 17° ESE 22:03:54 10° ENE
Cosmos 2237 Rocket 3.1 21:55:46 10° NNW 22:01:14 45° NE 22:06:39 10° ESE
H-2A R/B 3.1 21:58:41 14° SE 22:02:15 50° ENE 22:06:22 10° N
Cosmos 2322 3.8 21:59:06 10° NNW 22:04:48 78° WSW 22:09:35 15° SSE
Cosmos 1932 4.5 21:58:33 10° SSW 22:04:49 67° SE 22:11:03 10° NE
Orbus 7S? 4.1 22:01:57 10° W 22:05:22 42° N 22:07:58 10° ENE
CZ-2C R/B 3.8 22:01:24 10° NNE 22:05:46 58° ESE 22:09:29 14° S
SJ 16-02 1.4 22:01:44 10° SSW 22:06:03 77° WNW 22:10:24 10° NNE
Terra 4.1 22:03:28 10° SW 22:06:41 18° W 22:09:54 10° NW
Cosmos 2227 Rocket 4.3 22:09:56 10° ESE 22:11:25 11° E 22:12:55 10° ENE
Aureole 3 4.5 22:07:56 10° SSW 22:11:59 51° WNW 22:17:03 10° N
Cosmos 1980 4.2 22:08:58 10° NNW 22:14:34 56° NE 22:20:05 10° SE
Cosmos 371 Rocket 4.4 22:15:49 16° SSE 22:18:44 28° ESE 22:22:48 10° NE
Cosmos 2322 Rocket 4.2 22:15:36 10° WNW 22:19:25 19° W 22:23:15 10° SW
Cosmos 1238 4.4 22:21:03 10° NNW 22:24:12 85° W 22:26:41 19° S
ATLAS 2AS CENTAUR R/B 3.9 22:21:02 10° WNW 22:26:33 27° WSW 22:31:35 11° SSW
ARIANE 5 R/B 2.9 22:23:17 16° S 22:26:38 60° WSW 22:30:58 10° NNW
SL-4 R/B 2.2 22:24:08 10° W 22:28:00 50° SSW 22:31:56 11° ESE
Cosmos 2297 Rocket 3.3 22:27:16 16° SSE 22:30:41 27° ESE 22:35:22 10° NE
Cosmos 1825 4.4 22:32:07 10° ESE 22:33:11 11° E 22:34:15 10° ENE
Okean 1-7 3.9 22:30:34 10° SSW 22:34:44 45° WNW 22:38:55 10° N
USA 281 3.6 22:34:22 15° S 22:39:41 54° WSW 22:46:10 10° NW
GP-B 3.6 22:35:48 10° N 22:40:08 55° W 22:43:50 14° SSW
Cosmos 1745 Rocket 4.1 22:34:59 14° S 22:40:36 88° E 22:47:01 10° N
Cosmos 1782 Rocket 3.9 22:38:45 10° NNW 22:43:00 55° W 22:46:09 17° S
Cosmos 2219 Rocket 3.6 22:39:37 10° NW 22:44:20 28° WSW 22:48:35 12° SSW
Spot 4 3.9 22:41:21 18° S 22:44:54 79° WSW 22:49:46 10° NNW
Nadezhda 1 Rocket 4.3 22:39:10 10° NNW 22:45:22 61° W 22:50:31 15° S
ATLAS CENTAUR R/B 2.8 22:42:17 10° W 22:45:35 34° NNW 22:49:00 10° NE
COSMOS 2428 3.2 22:41:18 10° NW 22:46:47 50° WSW 22:50:54 17° S
Meteor 2-5 Rocket 4.2 22:46:15 17° SSE 22:50:37 53° E 22:56:16 10° NNE
BREEZE-M DEB (TANK) 1.3 22:48:42 10° W 22:52:22 81° S 22:54:23 10° E
Cosmos 1953 4.3 22:50:01 10° NW 22:52:50 20° W 22:55:37 10° SW
Cosmos 2098 Rocket 4.2 22:47:05 10° N 22:53:43 75° ENE 22:58:50 17° SSE
Cosmos 2181 Rocket 4.2 22:48:22 10° N 22:54:34 63° ENE 22:59:29 16° SSE
H-2A R/B 3.5 22:53:13 10° NE 22:56:44 24° E 22:59:07 15° SE
PSLV R/B 4.3 22:54:25 10° N 22:58:22 59° WNW 23:01:43 14° SSW
Cosmos 1300 Rocket 4.2 22:56:02 10° NNW 23:00:09 45° W 23:03:09 17° SSW
Cosmos 1242 Rocket 3.9 23:00:42 10° SW 23:03:01 23° WNW 23:05:20 10° NNW
NOSS 8 (A) 4.5 23:00:22 10° NW 23:03:14 64° NE 23:06:11 12° ESE
Cosmos 2263 Rocket 4.3 23:02:19 10° ESE 23:03:42 11° E 23:05:05 10° E
Cosmos 304 Rocket 4.0 23:03:17 19° S 23:06:29 56° ESE 23:11:10 10° NNE
Cosmos 2151 Rocket 3.8 23:04:00 10° N 23:08:24 65° ENE 23:11:26 19° SSE
Cosmos 405 Rocket 2.6 23:06:02 10° NNW 23:09:49 86° E 23:12:07 23° SSE
BlueWalker 3 2.1 23:06:48 10° SW 23:10:24 46° SSE 23:14:01 10° E
Okean 2 Rocket 3.3 23:10:28 10° N 23:14:56 69° ENE 23:18:04 19° SSE
ALOS 2 3.0 23:14:27 20° S 23:17:19 54° W 23:21:39 10° NNW
Cosmos 1674 Rocket 4.0 23:20:04 20° SSE 23:22:48 50° E 23:27:01 10° NNE
USA 234 3.6 23:16:22 10° ENE 23:22:54 71° NNW 23:29:24 10° W
Cosmos 1378 Rocket 3.8 23:20:47 21° S 23:23:33 60° E 23:27:53 10° NNE
COSMOS 2455 2.8 23:18:34 12° SSW 23:24:11 78° SE 23:30:15 10° NE
CENTAUR R/B 3.5 23:24:42 17° SSE 23:28:04 29° ESE 23:33:54 10° ENE
Cosmos 1025 Rocket 4.5 23:25:42 14° SE 23:28:32 27° E 23:32:10 10° NNE
Cosmos 1408 3.7 23:27:13 14° SW 23:29:16 28° WNW 23:31:55 10° N
Cosmos 1263 4.5 23:26:19 10° N 23:30:07 75° ENE 23:31:55 24° SSE
Cosmos 1703 3.8 23:34:51 18° SW 23:37:22 47° WNW 23:40:58 10° N
H-2A R/B 4.2 23:34:40 13° SW 23:37:24 23° W 23:40:50 10° NW
Cosmos 2221 Rocket 3.7 23:34:53 21° S 23:37:46 65° E 23:42:10 10° NNE
SL-16 R/B 2.5 23:33:07 10° NNW 23:38:50 70° NE 23:44:30 10° SE
Cosmos 1174 4.4 23:34:07 10° NW 23:39:07 52° WSW 23:41:41 21° S
Cosmos 1892 2.6 23:37:30 25° S 23:39:24 64° E 23:42:54 10° NNE
Sich 1 Rocket 3.6 23:36:08 10° NNW 23:40:32 71° W 23:43:22 21° S
Nadezhda 3 Rocket 4.2 23:35:38 10° N 23:41:56 68° ENE 23:47:09 15° SSE
Cosmos 1328 4.4 23:42:44 20° SSE 23:45:02 43° E 23:48:45 10° NNE
SJ 16-02 4.0 23:42:33 10° W 23:45:10 15° NW 23:47:48 10° N
Cosmos 2237 Rocket 2.8 23:39:58 10° NW 23:45:19 43° WSW 23:48:59 19° S
Cosmos 1538 Rocket 4.1 23:41:09 10° NNW 23:46:22 79° ENE 23:50:57 14° SSE
Cosmos 1777 Rocket 4.0 23:43:34 17° SSW 23:47:38 87° ESE 23:52:57 10° NNE
CZ-4C R/B 2.0 23:43:29 13° SW 23:47:46 83° SE 23:53:48 10° NE
Cosmos 1503 Rocket 4.1 23:43:27 16° SSW 23:47:49 82° WNW 23:53:09 10° NNE
BREEZE-M DEB (TANK) 3.1 23:40:07 10° W 23:48:35 48° SSW 23:51:34 10° SE
GEOS 3 Rocket 4.2 23:48:49 10° NE 23:53:40 39° SE 23:56:49 19° S
Cosmos 2227 Rocket 2.4 23:50:16 19° S 23:54:16 58° ESE 23:59:50 10° NE
